Flag for United Kingdom Weather past 2 weeks in Glasgow, Scotland, United Kingdom

43 °F

Light rain. Overcast.

Feels Like: 36 °F
Forecast: 37 / 51 °F
Wind: 13 mph from Northwest

Location: Glasgow Airport

Current Time: Nov 27, 2015 at 12:57:50 PM

Latest Report: Nov 27, 2015 at 12:20 PM

Visibility: N/A

Pressure: 29.45 "Hg

Humidity: 87%

Dew point: 39 °F

Location of GlasgowLocation

Historic Weather in Glasgow — Graph


Glasgow temperature yesterday

Maximum temperature yesterday: 54 °F (at 12:50 PM)
Minimum temperature yesterday: 46 °F (at 12:20 AM)
Average temperature yesterday: 51 °F

Past Weeks' High & Low Weather Summary

High59 °F (Nov 15, 5:50 PM)100% (Nov 14, 8:20 PM)30.21 "Hg (Nov 14, 8:20 PM)
Low28 °F (Nov 22, 8:20 PM)56% (Nov 21, 3:20 AM)29.12 "Hg (Nov 16, 1:20 AM)
Average44 °F85%29.69 "Hg
* Reported Nov 12 11:20 AM — Nov 27 11:20 AM, Glasgow, Weather by CustomWeather, © 2015

Note: Actual official high and low records may vary slightly from our data, if they occured in-between our weather recording intervals... More about our weather records


Glasgow weather history for previous 24 hours

Time TempWeatherWind HumidityBarometerVisibility
11:20 AM
Fri, Nov 27
46 °FLight rain. Mostly cloudy.16 mph93%29.42 "Hg4 mi
10:50 AM50 °FLight rain. Mostly cloudy.23 mph94%29.42 "Hg2 mi
10:20 AM50 °FDrizzle. Low clouds.22 mph94%29.42 "Hg2 mi
9:50 AM50 °FRain. Low clouds.22 mph94%29.45 "Hg2 mi
9:20 AM50 °FDrizzle. Low clouds.23 mph94%29.45 "Hg2 mi
8:50 AM50 °FLight rain. Mostly cloudy.24 mph94%29.47 "Hg2 mi
8:20 AM50 °FRain. Partly sunny.24 mph94%29.50 "Hg2 mi
7:50 AM50 °FOvercast.22 mph94%29.50 "Hg2 mi
6:50 AM50 °FDrizzle. Mostly cloudy.24 mph94%29.53 "Hg3 mi
6:20 AM50 °FPassing clouds.21 mph94%29.56 "Hg2 mi
5:50 AM50 °FPassing clouds.20 mph94%29.59 "Hg6 mi
5:20 AM52 °FOvercast.21 mph88%29.62 "HgN/A
4:50 AM52 °FMostly cloudy.17 mph88%29.65 "HgN/A
3:50 AM52 °FMostly cloudy.16 mph94%29.68 "HgN/A
3:20 AM52 °FPassing clouds.18 mph94%29.71 "HgN/A
2:50 AM52 °FDrizzle. Mostly cloudy.20 mph94%29.71 "Hg2 mi
2:20 AM52 °FPassing clouds.20 mph94%29.74 "Hg2 mi
1:50 AM52 °FLight rain. Passing clouds.20 mph94%29.77 "Hg2 mi
1:20 AM52 °FMostly cloudy.22 mph94%29.77 "Hg4 mi
12:50 AM52 °FLow clouds.16 mph94%29.77 "Hg4 mi
12:20 AM52 °FLight rain. Low clouds.17 mph94%29.80 "Hg4 mi
11:50 PM
Thu, Nov 26
52 °FRain. Low clouds.17 mph94%29.83 "Hg2 mi
11:20 PM52 °FLight rain. Passing clouds.17 mph94%29.83 "Hg4 mi
10:50 PM52 °FMostly cloudy.16 mph94%29.83 "Hg2 mi
10:20 PM52 °FLight rain. Passing clouds.18 mph100%29.86 "Hg4 mi
9:50 PM52 °FFog.14 mph100%29.86 "Hg2 mi
9:20 PM52 °FLow clouds.13 mph100%29.89 "HgN/A
8:50 PM52 °FLight rain. Passing clouds.13 mph100%29.89 "Hg5 mi
8:20 PM52 °FDrizzle. Low clouds.13 mph100%29.92 "Hg1 mi
7:50 PM54 °FFog.15 mph94%29.92 "Hg2 mi
7:20 PM54 °FLight rain. Mostly cloudy.14 mph94%29.92 "HgN/A
6:50 PM54 °FLight rain. Low clouds.14 mph94%29.95 "HgN/A
6:20 PM52 °FLight rain. Mostly cloudy.13 mph100%29.92 "HgN/A
5:50 PM52 °FLight rain. Low clouds.13 mph100%29.92 "Hg4 mi
5:20 PM52 °FLight rain. Low clouds.10 mph100%29.92 "Hg4 mi
4:50 PM52 °FLow clouds.13 mph100%29.92 "HgN/A
4:20 PM52 °FLow clouds.9 mph100%29.95 "HgN/A
3:50 PM52 °FLight rain. Low clouds.12 mph100%29.95 "Hg5 mi
3:20 PM52 °FLight rain. Low clouds.14 mph100%29.95 "Hg2 mi
2:50 PM52 °FFog.14 mph100%29.95 "Hg3 mi
2:20 PM52 °FLow clouds.13 mph100%29.95 "HgN/A
1:50 PM52 °FLow clouds.9 mph100%29.95 "HgN/A
1:20 PM54 °FDrizzle. Partly sunny.12 mph94%29.95 "Hg3 mi
12:50 PM54 °FDrizzle. Low clouds.15 mph94%29.98 "Hg3 mi
12:20 PM52 °FPartly sunny.12 mph100%29.98 "Hg4 mi
Weather by CustomWeather, © 2015

See weather overviewHow to use our weather pages